TimeEST,TemperatureF,Dew PointF,Humidity,Sea Level PressureIn,VisibilityMPH,Wind Direction,Wind SpeedMPH,Gust SpeedMPH,PrecipitationIn,Events,Conditions,WindDirDegrees,DateUTC
12:53 AM,8.1,3.9,83,30.17,6.0,Calm,Calm,-,N/A,,Scattered Clouds,0,2013-02-04 05:53:00
1:53 AM,9.0,5.0,84,30.17,7.0,Calm,Calm,-,N/A,,Clear,0,2013-02-04 06:53:00
2:53 AM,12.9,10.0,88,30.14,6.0,Calm,Calm,-,N/A,,Overcast,0,2013-02-04 07:53:00
3:53 AM,18.0,15.1,88,30.14,7.0,Calm,Calm,-,N/A,,Overcast,0,2013-02-04 08:53:00
5:53 AM,18.0,15.1,88,30.12,6.0,Calm,Calm,-,N/A,,Overcast,0,2013-02-04 10:53:00
6:53 AM,21.9,18.0,85,30.08,8.0,Calm,Calm,-,N/A,,Overcast,0,2013-02-04 11:53:00
7:53 AM,24.1,19.0,81,30.04,9.0,SSE,4.6,-,N/A,,Overcast,160,2013-02-04 12:53:00
8:53 AM,24.1,18.0,77,30.02,8.0,SE,3.5,-,N/A,,Overcast,140,2013-02-04 13:53:00
9:53 AM,27.0,18.0,69,30.01,10.0,SSE,3.5,-,N/A,,Overcast,150,2013-02-04 14:53:00
10:53 AM,28.9,19.0,67,29.98,10.0,South,6.9,-,N/A,,Overcast,180,2013-02-04 15:53:00
11:53 AM,32.0,19.9,61,29.96,10.0,Variable,3.5,-,N/A,,Overcast,0,2013-02-04 16:53:00
12:53 PM,33.1,21.0,61,29.92,10.0,SSE,5.8,-,N/A,,Overcast,160,2013-02-04 17:53:00
1:53 PM,34.0,21.0,59,29.91,10.0,NW,3.5,-,N/A,,Overcast,320,2013-02-04 18:53:00
2:53 PM,35.1,23.0,61,29.90,7.0,SSW,4.6,-,N/A,,Overcast,210,2013-02-04 19:53:00
2:57 PM,33.8,23.0,65,29.87,2.5,WSW,4.6,-,0.00,Snow,Light Snow,240,2013-02-04 19:57:00
3:00 PM,33.8,24.8,70,29.87,1.5,WSW,3.5,-,0.00,Snow,Light Snow,250,2013-02-04 20:00:00
3:14 PM,32.0,28.4,87,29.87,0.5,SW,5.8,-,0.01,Fog-Snow,Snow,230,2013-02-04 20:14:00
3:38 PM,32.0,30.2,93,29.86,0.2,SSW,3.5,-,0.04,Fog-Snow,Heavy Snow,210,2013-02-04 20:38:00
3:53 PM,32.0,30.0,92,29.88,0.2,Calm,Calm,-,0.06,Fog-Snow,Snow,0,2013-02-04 20:53:00
4:07 PM,32.0,30.2,93,29.85,0.5,Variable,3.5,-,0.01,Fog-Snow,Light Snow,0,2013-02-04 21:07:00
4:19 PM,33.8,30.2,87,29.84,1.0,Calm,Calm,-,0.01,Snow,Light Snow,0,2013-02-04 21:19:00
4:29 PM,33.8,30.2,87,29.84,2.0,South,3.5,-,0.02,Snow,Light Snow,190,2013-02-04 21:29:00
4:32 PM,33.8,30.2,87,29.84,3.0,Variable,5.8,-,0.02,Snow,Light Snow,0,2013-02-04 21:32:00
4:45 PM,33.8,30.2,87,29.84,6.0,Calm,Calm,-,0.02,,Overcast,0,2013-02-04 21:45:00
4:53 PM,34.0,32.0,92,29.86,6.0,South,3.5,-,0.02,,Overcast,190,2013-02-04 21:53:00
5:53 PM,35.1,32.0,89,29.87,7.0,Calm,Calm,-,N/A,,Overcast,0,2013-02-04 22:53:00
6:32 PM,35.6,32.0,87,29.85,8.0,Calm,Calm,-,N/A,,Overcast,0,2013-02-04 23:32:00
7:04 PM,35.6,33.8,93,29.86,8.0,Calm,Calm,-,N/A,,Overcast,0,2013-02-05 00:04:00
7:53 PM,35.1,33.1,92,29.88,7.0,Calm,Calm,-,N/A,,Overcast,0,2013-02-05 00:53:00
8:53 PM,34.0,32.0,92,29.90,6.0,Calm,Calm,-,N/A,,Overcast,0,2013-02-05 01:53:00
9:53 PM,34.0,32.0,92,29.91,5.0,Calm,Calm,-,N/A,,Overcast,0,2013-02-05 02:53:00
10:35 PM,33.8,32.0,93,29.89,5.0,Calm,Calm,-,N/A,,Overcast,0,2013-02-05 03:35:00
10:45 PM,33.8,32.0,93,29.89,4.0,Calm,Calm,-,N/A,,Overcast,0,2013-02-05 03:45:00
10:53 PM,33.1,32.0,96,29.91,4.0,Calm,Calm,-,N/A,,Overcast,0,2013-02-05 03:53:00
11:53 PM,34.0,32.0,92,29.90,5.0,SSW,3.5,-,N/A,,Overcast,210,2013-02-05 04:53:00